Time,TemperatureF,DewpointF,PressureIn,WindDirection,WindDirectionDegrees,WindSpeedMPH,WindSpeedGustMPH,Humidity,HourlyPrecipIn,Conditions,Clouds,dailyrainin,SoftwareType,DateUTC
2013-09-19 00:00:00,46.0,44.0,30.18,NW,312,0.0,2.0,91,0.00,,,-99.99,,2013-09-19 04:00:00,
2013-09-19 00:44:00,46.0,44.0,30.18,NW,312,0.0,2.0,91,0.00,,,-99.99,,2013-09-19 04:44:00,
2013-09-19 00:54:00,46.0,44.0,30.18,NW,312,0.0,2.0,91,0.00,,,-99.99,,2013-09-19 04:54:00,
2013-09-19 01:00:00,45.0,42.0,30.17,NW,312,0.0,0.0,89,0.00,,,-99.99,,2013-09-19 05:00:00,
2013-09-19 01:43:00,45.0,42.0,30.17,NW,312,0.0,0.0,89,0.00,,,-99.99,,2013-09-19 05:43:00,
2013-09-19 01:52:00,45.0,42.0,30.17,NW,312,0.0,0.0,89,0.00,,,-99.99,,2013-09-19 05:52:00,
2013-09-19 02:00:00,44.0,42.0,30.17,NW,312,0.0,0.0,91,0.00,,,-99.99,,2013-09-19 06:00:00,
2013-09-19 02:43:00,44.0,42.0,30.17,NW,312,0.0,0.0,91,0.00,,,-99.99,,2013-09-19 06:43:00,
2013-09-19 02:52:00,44.0,42.0,30.17,NW,312,0.0,0.0,91,0.00,,,-99.99,,2013-09-19 06:52:00,
2013-09-19 03:00:00,44.0,41.0,30.16,NW,312,0.0,1.0,90,0.00,,,-99.99,,2013-09-19 07:00:00,
2013-09-19 03:42:00,44.0,41.0,30.16,NW,312,0.0,1.0,90,0.00,,,-99.99,,2013-09-19 07:42:00,
2013-09-19 03:52:00,44.0,41.0,30.16,NW,312,0.0,1.0,90,0.00,,,-99.99,,2013-09-19 07:52:00,
2013-09-19 04:00:00,43.0,40.0,30.15,NW,312,0.0,1.0,88,0.00,,,-99.99,,2013-09-19 08:00:00,
2013-09-19 04:42:00,43.0,40.0,30.15,NW,312,0.0,1.0,88,0.00,,,-99.99,,2013-09-19 08:42:00,
2013-09-19 04:52:00,43.0,40.0,30.15,NW,312,0.0,1.0,88,0.00,,,-99.99,,2013-09-19 08:52:00,
2013-09-19 05:00:00,43.0,40.0,30.15,NW,312,0.0,1.0,90,0.00,,,-99.99,,2013-09-19 09:00:00,
2013-09-19 05:43:00,43.0,40.0,30.15,NW,312,0.0,1.0,90,0.00,,,-99.99,,2013-09-19 09:43:00,
2013-09-19 05:53:00,43.0,40.0,30.15,NW,312,0.0,1.0,90,0.00,,,-99.99,,2013-09-19 09:53:00,
2013-09-19 06:00:00,43.0,40.0,30.15,NNW,340,1.0,2.0,90,0.00,,,-99.99,,2013-09-19 10:00:00,
2013-09-19 06:43:00,43.0,40.0,30.15,NNW,340,1.0,2.0,90,0.00,,,-99.99,,2013-09-19 10:43:00,
2013-09-19 06:52:00,43.0,40.0,30.15,NNW,340,1.0,2.0,90,0.00,,,-99.99,,2013-09-19 10:52:00,
2013-09-19 07:00:00,42.0,40.0,30.16,East,82,0.0,2.0,93,0.00,,,-99.99,,2013-09-19 11:00:00,
2013-09-19 07:42:00,42.0,40.0,30.16,East,82,0.0,2.0,93,0.00,,,-99.99,,2013-09-19 11:42:00,
2013-09-19 07:53:00,42.0,40.0,30.16,East,82,0.0,2.0,93,0.00,,,-99.99,,2013-09-19 11:53:00,
2013-09-19 08:00:00,54.0,47.0,30.16,NE,53,0.0,1.0,78,0.00,,,-99.99,,2013-09-19 12:00:00,
2013-09-19 08:43:00,54.0,47.0,30.16,NE,53,0.0,1.0,78,0.00,,,-99.99,,2013-09-19 12:43:00,
2013-09-19 08:52:00,54.0,47.0,30.16,NE,53,0.0,1.0,78,0.00,,,-99.99,,2013-09-19 12:52:00,
2013-09-19 09:00:00,65.0,54.0,30.16,SE,130,0.0,1.0,68,0.00,,,-99.99,,2013-09-19 13:00:00,
2013-09-19 09:43:00,65.0,54.0,30.16,SE,130,0.0,1.0,68,0.00,,,-99.99,,2013-09-19 13:43:00,
2013-09-19 09:52:00,65.0,54.0,30.16,SE,130,0.0,1.0,68,0.00,,,-99.99,,2013-09-19 13:52:00,
2013-09-19 10:00:00,68.0,53.0,30.15,South,182,1.0,6.0,59,0.00,,,-99.99,,2013-09-19 14:00:00,
2013-09-19 10:42:00,68.0,53.0,30.15,South,182,1.0,6.0,59,0.00,,,-99.99,,2013-09-19 14:42:00,
2013-09-19 10:52:00,68.0,53.0,30.15,South,182,1.0,6.0,59,0.00,,,-99.99,,2013-09-19 14:52:00,
2013-09-19 11:00:00,70.0,53.0,30.14,West,275,4.0,7.0,54,0.00,,,-99.99,,2013-09-19 15:00:00,
2013-09-19 11:43:00,70.0,53.0,30.14,West,275,4.0,7.0,54,0.00,,,-99.99,,2013-09-19 15:43:00,
2013-09-19 11:54:00,70.0,53.0,30.14,West,275,4.0,7.0,54,0.00,,,-99.99,,2013-09-19 15:54:00,
2013-09-19 12:00:00,69.0,54.0,30.15,NW,311,4.0,14.0,59,0.00,,,-99.99,,2013-09-19 16:00:00,
2013-09-19 12:43:00,69.0,54.0,30.15,NW,311,4.0,14.0,59,0.00,,,-99.99,,2013-09-19 16:43:00,
2013-09-19 12:53:00,69.0,54.0,30.15,NW,311,4.0,14.0,59,0.00,,,-99.99,,2013-09-19 16:53:00,
2013-09-19 13:00:00,73.0,54.0,30.13,SSW,210,8.0,14.0,51,0.00,,,-99.99,,2013-09-19 17:00:00,
2013-09-19 13:42:00,73.0,54.0,30.13,SSW,210,8.0,14.0,51,0.00,,,-99.99,,2013-09-19 17:42:00,
2013-09-19 13:53:00,73.0,54.0,30.13,SSW,210,8.0,14.0,51,0.00,,,-99.99,,2013-09-19 17:53:00,
2013-09-19 14:00:00,73.0,53.0,30.11,SSW,209,12.0,21.0,51,0.00,,,-99.99,,2013-09-19 18:00:00,
2013-09-19 14:42:00,73.0,53.0,30.11,SSW,209,12.0,21.0,51,0.00,,,-99.99,,2013-09-19 18:42:00,
2013-09-19 14:52:00,73.0,53.0,30.11,SSW,209,12.0,21.0,51,0.00,,,-99.99,,2013-09-19 18:52:00,
2013-09-19 15:00:00,73.0,52.0,30.09,SW,216,9.0,14.0,48,0.00,,,-99.99,,2013-09-19 19:00:00,
2013-09-19 15:42:00,73.0,52.0,30.09,SW,216,9.0,14.0,48,0.00,,,-99.99,,2013-09-19 19:42:00,
2013-09-19 15:52:00,73.0,52.0,30.09,SW,216,9.0,14.0,48,0.00,,,-99.99,,2013-09-19 19:52:00,
2013-09-19 16:00:00,73.0,50.0,30.07,SW,222,4.0,-999.0,43,-99.99,,,-99.99,,2013-09-19 20:00:00,
2013-09-19 16:42:00,73.0,50.0,30.07,SW,222,4.0,-999.0,43,-99.99,,,-99.99,,2013-09-19 20:42:00,
2013-09-19 16:52:00,73.0,50.0,30.07,SW,222,4.0,-999.0,43,-99.99,,,-99.99,,2013-09-19 20:52:00,
2013-09-19 17:00:00,72.0,51.0,30.06,SW,214,9.0,-999.0,48,-99.99,,,-99.99,,2013-09-19 21:00:00,
2013-09-19 17:44:00,72.0,51.0,30.06,SW,214,9.0,-999.0,48,-99.99,,,-99.99,,2013-09-19 21:44:00,
2013-09-19 17:55:00,72.0,51.0,30.06,SW,214,9.0,-999.0,48,-99.99,,,-99.99,,2013-09-19 21:55:00,
2013-09-19 18:00:00,68.0,53.0,30.07,SSE,157,6.0,-999.0,59,-99.99,,,-99.99,,2013-09-19 22:00:00,
2013-09-19 18:42:00,68.0,53.0,30.07,SSE,157,6.0,-999.0,59,-99.99,,,-99.99,,2013-09-19 22:42:00,
2013-09-19 18:53:00,68.0,53.0,30.07,SSE,157,6.0,-999.0,59,-99.99,,,-99.99,,2013-09-19 22:53:00,
2013-09-19 19:00:00,64.0,54.0,30.07,South,191,3.0,-999.0,70,-99.99,,,-99.99,,2013-09-19 23:00:00,
2013-09-19 19:43:00,64.0,54.0,30.07,South,191,3.0,-999.0,70,-99.99,,,-99.99,,2013-09-19 23:43:00,
2013-09-19 19:53:00,64.0,54.0,30.07,South,191,3.0,-999.0,70,-99.99,,,-99.99,,2013-09-19 23:53:00,
2013-09-19 20:00:00,58.0,54.0,30.08,SW,218,2.0,-999.0,84,-99.99,,,-99.99,,2013-09-20 00:00:00,
2013-09-19 20:42:00,58.0,54.0,30.08,SW,218,2.0,-999.0,84,-99.99,,,-99.99,,2013-09-20 00:42:00,
2013-09-19 20:52:00,58.0,54.0,30.08,SW,218,2.0,-999.0,84,-99.99,,,-99.99,,2013-09-20 00:52:00,
2013-09-19 21:00:00,55.0,52.0,30.09,SW,232,3.0,-999.0,87,-99.99,,,-99.99,,2013-09-20 01:00:00,
2013-09-19 21:42:00,55.0,52.0,30.09,SW,232,3.0,-999.0,87,-99.99,,,-99.99,,2013-09-20 01:42:00,
2013-09-19 21:52:00,55.0,52.0,30.09,SW,232,3.0,-999.0,87,-99.99,,,-99.99,,2013-09-20 01:52:00,
2013-09-19 22:00:00,53.0,50.0,30.09,SSW,208,2.0,-999.0,89,-99.99,,,-99.99,,2013-09-20 02:00:00,
2013-09-19 22:43:00,53.0,50.0,30.09,SSW,208,2.0,-999.0,89,-99.99,,,-99.99,,2013-09-20 02:43:00,
2013-09-19 22:53:00,53.0,50.0,30.09,SSW,208,2.0,-999.0,89,-99.99,,,-99.99,,2013-09-20 02:53:00,
2013-09-19 23:00:00,52.0,49.0,30.07,SSW,196,3.0,-999.0,90,-99.99,,,-99.99,,2013-09-20 03:00:00,
2013-09-19 23:45:00,52.0,49.0,30.07,SSW,196,3.0,-999.0,90,-99.99,,,-99.99,,2013-09-20 03:45:00,
2013-09-19 23:56:00,52.0,49.0,30.07,SSW,196,3.0,-999.0,90,-99.99,,,-99.99,,2013-09-20 03:56:00,